Total_Precipitation_Accumulation
0.66 0.56 0.64 0.63 0.51 0.60 0.87 0.78 0.70 0.51 0.48 0.54 0.52 0.53 0.52 0.47 0.42 0.37 0.35 0.33 0.31 0.32 0.33 0.35 0.36 0.42 0.52 0.62 0.69 0.80 0.89 0.92 0.89 0.83 0.79 0.77 0.76 0.73 0.72 0.74 0.76 0.76 0.74 0.73
0.69 0.41 0.44 0.47 0.38 0.44 0.54 0.48 0.46 0.39 0.45 0.40 0.39 0.42 0.44 0.39 0.33 0.29 0.29 0.28 0.25 0.23 0.24 0.27 0.30 0.32 0.39 0.50 0.60 0.69 0.79 0.85 0.86 0.82 0.76 0.73 0.70 0.68 0.65 0.66 0.69 0.73 0.75 0.77
0.80 0.40 0.47 0.53 0.42 0.43 0.49 0.44 0.42 0.50 0.46 0.31 0.32 0.39 0.47 0.42 0.32 0.27 0.26 0.25 0.23 0.23 0.22 0.22 0.24 0.30 0.38 0.45 0.51 0.55 0.61 0.69 0.73 0.74 0.73 0.71 0.69 0.71 0.76 0.78 0.79 0.84 0.88 0.91
0.86 0.64 0.77 0.56 0.34 0.34 0.42 0.43 0.39 0.41 0.33 0.30 0.33 0.34 0.37 0.39 0.34 0.28 0.22 0.19 0.19 0.20 0.20 0.19 0.22 0.27 0.36 0.47 0.53 0.58 0.62 0.65 0.66 0.69 0.72 0.75 0.81 0.88 0.96 1.02 1.03 1.06 1.10 1.12
0.82 0.65 0.44 0.28 0.22 0.30 0.40 0.44 0.34 0.31 0.25 0.22 0.24 0.30 0.32 0.29 0.30 0.28 0.22 0.19 0.18 0.19 0.21 0.22 0.24 0.26 0.33 0.45 0.54 0.59 0.65 0.69 0.72 0.79 0.86 0.90 0.99 1.08 1.10 1.17 1.16 1.13 1.10 1.07
0.82 0.67 0.39 0.28 0.13 0.15 0.29 0.47 0.26 0.22 0.22 0.19 0.21 0.31 0.33 0.30 0.33 0.33 0.28 0.23 0.21 0.20 0.21 0.25 0.30 0.33 0.40 0.52 0.63 0.70 0.74 0.80 0.83 0.87 0.92 0.95 0.96 0.97 0.98 0.97 0.94 0.90 0.86 0.83
0.66 0.62 0.35 0.23 0.09 0.10 0.36 0.47 0.25 0.24 0.24 0.24 0.29 0.35 0.31 0.29 0.32 0.33 0.34 0.34 0.32 0.32 0.33 0.36 0.43 0.51 0.60 0.70 0.82 0.87 0.85 0.89 0.89 0.86 0.86 0.84 0.77 0.71 0.68 0.66 0.62 0.59 0.58 0.57
0.46 0.65 0.47 0.22 0.16 0.31 0.43 0.27 0.22 0.21 0.23 0.24 0.24 0.22 0.22 0.23 0.26 0.29 0.31 0.34 0.38 0.43 0.44 0.45 0.53 0.63 0.72 0.80 0.85 0.81 0.74 0.71 0.67 0.60 0.56 0.54 0.51 0.49 0.48 0.49 0.50 0.48 0.46 0.45
0.46 0.52 0.42 0.30 0.30 0.31 0.27 0.24 0.21 0.23 0.21 0.22 0.23 0.23 0.23 0.22 0.23 0.25 0.25 0.25 0.29 0.35 0.40 0.38 0.40 0.45 0.49 0.50 0.48 0.47 0.44 0.42 0.41 0.40 0.39 0.39 0.40 0.41 0.42 0.42 0.44 0.44 0.44 0.44
0.38 0.37 0.29 0.25 0.21 0.20 0.19 0.22 0.21 0.20 0.19 0.19 0.22 0.21 0.20 0.20 0.21 0.22 0.22 0.22 0.23 0.25 0.28 0.28 0.27 0.27 0.27 0.27 0.27 0.30 0.32 0.33 0.34 0.36 0.36 0.37 0.38 0.38 0.40 0.42 0.43 0.44 0.44 0.44
0.35 0.28 0.22 0.20 0.18 0.19 0.17 0.15 0.15 0.15 0.15 0.17 0.18 0.17 0.18 0.19 0.20 0.20 0.20 0.21 0.22 0.27 0.30 0.32 0.30 0.29 0.28 0.29 0.30 0.32 0.34 0.35 0.38 0.39 0.37 0.37 0.39 0.40 0.42 0.45 0.49 0.51 0.49 0.47
0.40 0.29 0.30 0.26 0.19 0.16 0.16 0.16 0.17 0.18 0.17 0.17 0.19 0.21 0.21 0.22 0.22 0.22 0.22 0.22 0.23 0.25 0.30 0.34 0.32 0.31 0.31 0.32 0.34 0.35 0.36 0.36 0.37 0.38 0.38 0.37 0.36 0.37 0.43 0.45 0.48 0.49 0.48 0.48
0.31 0.21 0.20 0.18 0.14 0.14 0.16 0.18 0.20 0.21 0.21 0.22 0.22 0.23 0.25 0.26 0.26 0.25 0.24 0.24 0.27 0.29 0.30 0.33 0.34 0.34 0.36 0.36 0.35 0.36 0.38 0.38 0.39 0.39 0.39 0.39 0.37 0.36 0.40 0.44 0.48 0.48 0.47 0.47
0.15 0.15 0.17 0.16 0.17 0.16 0.17 0.20 0.19 0.20 0.21 0.23 0.24 0.24 0.24 0.24 0.23 0.24 0.28 0.31 0.31 0.30 0.30 0.31 0.30 0.32 0.36 0.36 0.35 0.36 0.38 0.41 0.41 0.39 0.41 0.43 0.43 0.40 0.39 0.41 0.42 0.42 0.43 0.48
0.15 0.18 0.22 0.20 0.17 0.16 0.16 0.15 0.15 0.16 0.17 0.18 0.20 0.22 0.23 0.24 0.26 0.28 0.30 0.30 0.28 0.27 0.27 0.27 0.27 0.31 0.32 0.34 0.33 0.35 0.37 0.40 0.41 0.40 0.42 0.45 0.47 0.48 0.46 0.44 0.44 0.43 0.42 0.46
0.18 0.17 0.17 0.18 0.19 0.17 0.16 0.16 0.18 0.19 0.19 0.20 0.21 0.24 0.26 0.27 0.27 0.28 0.29 0.28 0.28 0.29 0.29 0.28 0.29 0.31 0.31 0.31 0.32 0.34 0.38 0.47 0.49 0.48 0.48 0.49 0.49 0.49 0.48 0.46 0.46 0.44 0.43 0.46
0.29 0.26 0.23 0.23 0.23 0.22 0.23 0.25 0.26 0.26 0.24 0.23 0.25 0.25 0.25 0.24 0.24 0.25 0.27 0.28 0.28 0.29 0.29 0.29 0.31 0.30 0.29 0.30 0.33 0.36 0.39 0.44 0.50 0.47 0.46 0.47 0.49 0.50 0.50 0.50 0.48 0.46 0.43 0.48
0.35 0.35 0.33 0.33 0.31 0.30 0.28 0.27 0.26 0.26 0.27 0.27 0.25 0.25 0.25 0.25 0.27 0.29 0.29 0.27 0.25 0.26 0.30 0.32 0.30 0.27 0.26 0.28 0.31 0.35 0.36 0.39 0.41 0.43 0.44 0.48 0.52 0.52 0.52 0.51 0.49 0.47 0.45 0.49
0.31 0.32 0.33 0.33 0.33 0.32 0.33 0.33 0.33 0.31 0.30 0.29 0.27 0.29 0.29 0.30 0.32 0.33 0.30 0.27 0.27 0.29 0.32 0.31 0.32 0.28 0.28 0.31 0.34 0.35 0.37 0.39 0.41 0.41 0.43 0.49 0.52 0.49 0.49 0.50 0.49 0.48 0.47 0.48
0.31 0.33 0.33 0.34 0.32 0.32 0.34 0.35 0.32 0.31 0.31 0.30 0.30 0.30 0.31 0.32 0.32 0.31 0.28 0.29 0.33 0.34 0.32 0.30 0.29 0.29 0.30 0.32 0.35 0.35 0.36 0.39 0.41 0.42 0.45 0.47 0.48 0.47 0.47 0.47 0.47 0.47 0.46 0.47
0.35 0.34 0.33 0.35 0.35 0.34 0.34 0.33 0.32 0.33 0.34 0.31 0.31 0.33 0.34 0.33 0.31 0.28 0.26 0.28 0.30 0.28 0.26 0.27 0.26 0.26 0.30 0.36 0.39 0.37 0.37 0.40 0.43 0.46 0.49 0.49 0.49 0.47 0.46 0.45 0.46 0.46 0.47 0.46
0.33 0.33 0.34 0.34 0.32 0.33 0.33 0.33 0.33 0.34 0.34 0.34 0.34 0.33 0.32 0.31 0.29 0.26 0.26 0.29 0.29 0.28 0.27 0.26 0.27 0.30 0.37 0.42 0.41 0.40 0.42 0.44 0.46 0.48 0.50 0.50 0.50 0.48 0.45 0.45 0.46 0.45 0.44 0.44
0.29 0.30 0.32 0.33 0.33 0.33 0.31 0.32 0.33 0.32 0.33 0.34 0.36 0.36 0.34 0.32 0.29 0.29 0.31 0.29 0.27 0.27 0.27 0.28 0.32 0.38 0.42 0.42 0.40 0.41 0.43 0.45 0.46 0.46 0.46 0.46 0.46 0.45 0.45 0.44 0.42 0.42 0.42 0.42
0.21 0.21 0.23 0.24 0.22 0.22 0.24 0.26 0.26 0.26 0.28 0.29 0.30 0.30 0.30 0.29 0.27 0.27 0.29 0.30 0.28 0.28 0.28 0.30 0.35 0.39 0.40 0.38 0.37 0.39 0.40 0.41 0.41 0.41 0.41 0.40 0.40 0.40 0.40 0.40 0.40 0.38 0.39 0.38
0.14 0.14 0.14 0.14 0.15 0.17 0.19 0.19 0.19 0.20 0.21 0.24 0.25 0.24 0.24 0.26 0.28 0.28 0.27 0.27 0.27 0.27 0.28 0.29 0.31 0.33 0.33 0.32 0.33 0.35 0.35 0.37 0.39 0.41 0.39 0.38 0.37 0.36 0.35 0.34 0.36 0.35 0.35 0.35
0.11 0.10 0.10 0.11 0.13 0.14 0.15 0.15 0.17 0.18 0.19 0.20 0.22 0.23 0.23 0.25 0.26 0.27 0.27 0.27 0.25 0.26 0.27 0.28 0.28 0.29 0.29 0.29 0.29 0.29 0.30 0.31 0.33 0.33 0.33 0.34 0.34 0.34 0.33 0.32 0.32 0.33 0.33 0.33
0.09 0.09 0.09 0.09 0.10 0.11 0.13 0.13 0.15 0.17 0.18 0.21 0.23 0.23 0.24 0.25 0.25 0.26 0.25 0.24 0.24 0.25 0.25 0.26 0.26 0.27 0.27 0.27 0.27 0.26 0.26 0.27 0.29 0.30 0.30 0.31 0.32 0.32 0.32 0.32 0.32 0.32 0.32 0.32